Probability
0 0 0 0 0 0 0 0 0 0 0 0 0 0 0 0 0 0 0 0 0 0 0 0 0 0 0 0 0 0 0 0 0 0 0 0 0 0 0 0 0 0 0 0
0 0 0 0 0 0 0 0 0 0 0 0 0 0 0 0 0 0 0 0 0 0 0 0 0 0 0 0 0 0 0 0 0 0 0 0 0 0 0 0 0 0 0 0
0 0 0 0 0 0 0 0 0 0 0 0 0 0 0 0 0 0 0 0 0 0 0 0 0 0 0 0 0 0 0 0 0 0 0 0 0 0 0 0 0 0 0 0
0 0 0 0 0 0 0 0 0 0 0 0 0 0 0 0 0 0 0 0 0 0 0 0 0 0 0 0 0 0 0 0 0 0 0 0 0 0 0 0 0 0 0 0
0 0 0 0 0 0 0 0 0 0 0 0 0 0 0 0 0 0 0 0 0 0 0 0 0 0 0 0 0 0 0 0 0 0 0 0 0 0 0 0 0 0 0 0
0 0 0 0 0 0 0 0 0 0 0 0 0 0 0 0 0 0 0 0 0 0 0 0 0 0 0 0 0 0 0 0 0 0 0 0 0 0 0 0 0 0 0 0
0 0 0 0 0 0 0 0 0 0 0 0 0 0 0 0 0 0 0 0 0 0 0 0 0 0 0 0 0 0 0 0 0 0 0 0 0 0 0 0 0 0 0 0
0 0 0 0 0 0 0 0 0 0 0 0 0 0 0 0 0 0 0 0 0 0 0 0 0 0 0 0 0 0 0 0 0 0 0 0 0 0 0 0 0 0 0 0
0 0 0 0 0 0 0 0 0 0 0 0 0 0 0 0 0 0 0 0 0 0 0 0 0 0 0 0 0 0 0 0 0 0 0 0 0 0 0 0 0 0 0 0
0 0 0 0 0 0 0 0 0 0 0 0 0 0 0 0 0 0 0 0 0 0 0 0 0 0 0 0 0 0 0 0 0 0 0 0 0 0 0 0 0 0 0 0
0 0 0 0 0 0 0 0 0 0 0 0 0 0 0 0 0 0 0 0 0 0 0 0 0 0 0 0 0 0 0 0 0 0 0 0 0 0 0 0 0 0 0 0
0 0 0 0 0 0 0 0 0 0 0 0 0 0 0 0 0 0 0 0 0 0 0 0 0 0 0 0 0 0 0 0 0 0 0 0 0 0 0 0 0 0 0 0
0 0 0 0 0 0 0 0 0 0 0 0 0 0 0 0 0 0 0 0 0 0 0 0 0 0 0 0 0 0 0 0 0 0 0 0 0 0 0 0 0 0 0 0
0 0 0 0 0 0 0 0 0 0 0 0 0 0 0 0 0 0 0 0 0 0 0 0 0 0 0 0 0 0 0 0 0 0 0 0 0 0 0 0 0 0 0 0
0 0 0 0 0 0 0 0 0 0 0 0 0 0 0 0 0 0 0 0 0 0 0 0 0 0 0 0 0 0 0 0 0 0 0 0 0 0 0 0 0 0 0 0
0 0 0 0 0 0 0 0 0 0 0 0 0 0 0 0 0 0 0 0 0 0 0 0 0 0 0 0 0 0 0 0 0 0 0 0 0 0 0 0 0 0 0 0
0 0 0 0 0 0 0 0 0 0 0 0 0 0 0 0 0 0 0 0 0 0 0 0 0 0 0 0 0 0 0 0 0 0 0 0 0 0 0 0 0 0 0 0
0 0 0 0 0 0 0 0 0 0 0 0 0 0 0 0 0 0 0 0 0 0 0 0 0 0 0 0 0 0 0 0 0 0 0 0 0 0 0 0 0 0 0 0
0 0 0 0 0 0 0 0 0 0 0 0 0 0 0 0 0 0 0 0 0 0 0 0 0 0 0 0 0 0 0 0 0 0 0 0 0 0 0 0 0 0 0 0
0 0 0 0 0 0 0 0 0 0 0 0 0 0 0 0 0 0 0 0 0 0 0 0 0 0 0 0 0 0 0 0 0 0 0 0 0 0 0 0 0 0 0 0
0 0 0 0 0 0 0 0 0 0 0 0 0 0 0 0 0 0 0 0 0 0 0 0 0 0 0 0 0 0 0 0 0 0 0 0 0 0 0 0 0 0 0 0
0 0 0 0 0 0 0 0 0 0 0 0 0 0 0 0 0 0 0 0 0 0 0 0 0 0 0 0 0 0 0 0 0 0 0 0 0 0 0 0 0 0 0 0
0 0 0 0 0 0 0 0 0 0 0 0 0 0 0 0 0 0 0 0 0 0 0 0 0 0 0 0 0 0 0 0 0 0 0 0 0 0 0 0 0 0 0 0
0 0 0 0 0 0 0 0 0 0 0 0 0 0 0 0 0 0 0 0 0 0 0 0 0 0 0 0 0 0 0 0 0 0 0 0 0 0 0 0 0 0 0 0
0 0 0 0 0 0 0 0 0 0 0 0 0 0 0 0 0 0 0 0 0 0 0 0 0 0 0 0 0 0 0 0 0 0 0 0 0 0 0 0 0 0 0 0
0 0 0 0 0 0 0 0 0 0 0 0 0 0 0 0 0 0 0 0 0 0 0 0 0 0 0 0 0 0 0 0 0 0 0 0 0 0 0 0 0 0 0 0
0 0 0 0 0 0 0 0 0 0 0 0 0 0 0 0 0 0 0 0 0 0 0 0 0 0 0 0 0 0 0 0 0 0 0 0 0 0 0 0 0 0 0 0
Height
5759 5757 5755 5754 5752 5749 5745 5742 5739 5738 5735 5733 5728 5725 5721 5717 5711 5706 5702 5696 5690 5685 5679 5673 5666 5660 5653 5647 5640 5633 5626 5619 5612 5606 5600 5594 5588 5582 5576 5570 5564 5559 5554 5549
5751 5749 5747 5747 5745 5742 5739 5736 5732 5729 5727 5723 5719 5715 5711 5706 5701 5695 5690 5685 5679 5673 5666 5660 5653 5646 5640 5633 5625 5618 5611 5604 5597 5590 5584 5577 5571 5565 5559 5553 5547 5541 5536 5531
5743 5741 5739 5740 5737 5734 5731 5728 5725 5721 5718 5714 5709 5705 5700 5695 5689 5684 5678 5672 5666 5659 5652 5645 5638 5631 5624 5617 5609 5602 5594 5587 5580 5574 5567 5561 5554 5548 5542 5536 5530 5524 5519 5514
5733 5733 5731 5733 5729 5725 5721 5719 5715 5711 5708 5704 5699 5695 5689 5683 5676 5671 5664 5657 5650 5643 5636 5629 5621 5614 5607 5599 5592 5585 5578 5571 5564 5557 5550 5544 5537 5531 5525 5519 5513 5508 5502 5496
5723 5721 5721 5723 5720 5715 5711 5709 5705 5701 5697 5693 5688 5683 5678 5670 5663 5656 5649 5642 5634 5627 5619 5612 5604 5596 5589 5581 5574 5566 5559 5553 5546 5539 5533 5527 5521 5515 5509 5503 5497 5492 5486 5480
5714 5710 5710 5712 5708 5703 5700 5697 5693 5689 5684 5679 5674 5669 5665 5656 5648 5641 5633 5625 5618 5610 5601 5593 5585 5577 5570 5562 5555 5547 5541 5534 5527 5521 5514 5509 5503 5497 5491 5486 5481 5475 5470 5464
5705 5700 5700 5699 5695 5691 5689 5685 5680 5675 5670 5665 5659 5652 5647 5639 5632 5623 5616 5608 5599 5591 5582 5574 5565 5557 5550 5543 5535 5529 5522 5516 5509 5502 5496 5490 5485 5480 5474 5469 5464 5459 5454 5448
5695 5692 5692 5686 5683 5680 5676 5671 5666 5661 5656 5650 5644 5637 5630 5622 5614 5606 5597 5589 5580 5572 5564 5555 5545 5537 5531 5524 5517 5511 5505 5498 5492 5485 5479 5473 5468 5462 5457 5452 5447 5442 5437 5432
5685 5684 5680 5675 5670 5666 5661 5657 5652 5646 5641 5634 5628 5621 5613 5605 5597 5588 5579 5570 5561 5552 5545 5537 5528 5519 5512 5506 5499 5493 5487 5481 5474 5468 5462 5456 5451 5446 5440 5435 5430 5425 5420 5416
5673 5672 5668 5664 5659 5654 5649 5644 5638 5631 5625 5617 5610 5603 5595 5587 5578 5569 5560 5551 5542 5534 5527 5520 5511 5503 5495 5488 5482 5476 5471 5464 5458 5452 5447 5441 5435 5429 5424 5419 5414 5409 5404 5400
5659 5657 5654 5650 5645 5640 5634 5628 5621 5615 5607 5599 5592 5585 5576 5568 5560 5551 5542 5533 5525 5516 5509 5503 5495 5488 5480 5472 5466 5461 5455 5448 5442 5436 5431 5426 5420 5414 5409 5404 5397 5393 5388 5383
5646 5642 5638 5634 5628 5623 5617 5611 5604 5598 5591 5582 5574 5566 5558 5550 5541 5533 5525 5517 5509 5501 5494 5487 5479 5473 5465 5458 5451 5445 5439 5433 5427 5421 5416 5411 5406 5401 5395 5389 5383 5377 5372 5367
5631 5627 5622 5617 5612 5606 5600 5594 5587 5580 5573 5565 5557 5548 5541 5533 5525 5517 5509 5501 5493 5486 5479 5472 5465 5458 5451 5444 5437 5431 5424 5418 5413 5407 5402 5396 5391 5386 5382 5377 5370 5364 5358 5352
5615 5611 5607 5601 5595 5589 5583 5577 5570 5563 5555 5547 5540 5532 5524 5517 5510 5502 5494 5487 5479 5473 5465 5458 5451 5445 5437 5430 5424 5417 5411 5405 5399 5393 5388 5383 5377 5372 5366 5362 5358 5352 5345 5339
5598 5594 5589 5584 5578 5572 5566 5559 5553 5546 5539 5532 5524 5516 5509 5502 5496 5489 5481 5473 5467 5460 5452 5444 5438 5431 5424 5417 5411 5405 5398 5392 5386 5381 5375 5369 5364 5358 5353 5348 5343 5338 5332 5326
5582 5577 5572 5567 5561 5555 5549 5542 5536 5530 5523 5516 5510 5503 5496 5489 5482 5476 5469 5461 5454 5447 5439 5432 5425 5418 5411 5405 5399 5393 5387 5381 5374 5369 5363 5357 5351 5346 5340 5335 5329 5324 5318 5312
5565 5560 5555 5550 5544 5538 5532 5526 5519 5514 5508 5502 5496 5489 5483 5476 5470 5464 5457 5449 5442 5434 5426 5419 5412 5406 5400 5393 5387 5382 5376 5370 5363 5357 5351 5345 5340 5334 5328 5322 5317 5311 5305 5299
5548 5544 5538 5533 5528 5523 5517 5511 5505 5499 5493 5487 5482 5476 5470 5463 5457 5451 5445 5438 5431 5424 5416 5408 5401 5394 5388 5382 5376 5371 5365 5359 5353 5347 5341 5335 5329 5323 5317 5311 5305 5299 5294 5288
5532 5528 5523 5517 5512 5507 5502 5497 5491 5486 5480 5474 5468 5463 5457 5451 5444 5438 5432 5425 5418 5411 5406 5398 5391 5384 5378 5372 5366 5361 5355 5349 5343 5337 5331 5325 5319 5312 5306 5300 5295 5289 5284 5279
5516 5511 5507 5502 5497 5492 5487 5482 5477 5473 5467 5461 5455 5450 5445 5439 5432 5426 5420 5414 5406 5398 5393 5387 5381 5375 5369 5363 5357 5352 5346 5340 5335 5328 5322 5316 5309 5303 5297 5291 5286 5281 5276 5271
5500 5496 5491 5487 5483 5478 5473 5467 5463 5459 5454 5448 5442 5437 5432 5427 5421 5414 5408 5403 5397 5389 5383 5377 5371 5365 5360 5354 5349 5343 5338 5332 5326 5320 5314 5307 5301 5295 5289 5284 5278 5273 5268 5263
5485 5480 5476 5471 5467 5464 5459 5454 5449 5444 5440 5436 5430 5425 5420 5415 5410 5404 5398 5391 5385 5379 5373 5368 5362 5356 5351 5346 5341 5335 5330 5324 5318 5312 5306 5299 5294 5288 5282 5276 5271 5266 5262 5257
5469 5464 5460 5456 5451 5448 5445 5440 5435 5430 5427 5423 5418 5413 5408 5403 5398 5392 5387 5382 5375 5369 5364 5359 5353 5348 5343 5338 5333 5328 5322 5316 5311 5305 5299 5293 5287 5282 5276 5271 5266 5261 5256 5252
5452 5448 5444 5440 5436 5432 5430 5426 5422 5418 5414 5410 5406 5401 5396 5391 5387 5382 5376 5371 5365 5360 5355 5350 5345 5340 5335 5330 5325 5320 5315 5310 5304 5298 5293 5288 5282 5277 5272 5267 5262 5257 5253 5248
5436 5432 5428 5424 5421 5417 5414 5411 5409 5405 5402 5398 5395 5390 5385 5380 5376 5371 5366 5361 5356 5351 5346 5342 5337 5333 5328 5323 5319 5314 5309 5303 5298 5293 5288 5283 5278 5273 5268 5263 5259 5254 5250 5246
5420 5416 5412 5409 5406 5402 5400 5397 5395 5392 5389 5386 5383 5379 5375 5370 5365 5361 5356 5351 5346 5342 5338 5334 5330 5325 5321 5317 5312 5307 5303 5298 5293 5288 5283 5278 5274 5269 5265 5260 5256 5252 5249 5245
5404 5400 5397 5394 5392 5388 5386 5384 5382 5379 5376 5374 5371 5368 5364 5360 5355 5351 5346 5342 5338 5334 5330 5326 5322 5318 5314 5310 5306 5302 5297 5293 5288 5284 5279 5275 5270 5266 5262 5258 5254 5251 5247 5244
Wind_Speed
29 29 29 28 28 29 32 33 36 34 35 36 38 38 40 42 44 46 46 47 49 50 52 53 54 55 55 56 56 57 57 57 56 56 57 57 57 58 58 59 59 59 59 59
28 28 29 27 28 30 31 33 36 37 37 39 41 42 44 45 48 49 50 52 53 55 56 57 58 59 59 59 60 60 60 59 58 57 57 58 58 58 58 59 59 59 59 59
29 29 31 29 30 32 34 35 37 39 41 43 44 46 48 50 52 54 55 56 58 59 60 61 63 63 64 63 63 63 62 61 60 59 58 58 58 58 58 59 59 59 59 59
32 32 33 32 32 34 37 38 40 43 45 46 48 49 51 54 56 57 59 61 62 64 65 66 67 67 67 66 65 65 63 62 61 60 60 59 59 58 58 57 57 57 57 57
36 37 36 33 35 38 41 43 44 46 48 50 52 54 55 57 60 62 64 66 67 69 70 70 70 70 69 68 66 65 64 63 62 61 60 59 58 58 58 57 56 56 55 56
37 40 40 39 41 43 46 48 49 51 53 55 57 59 60 62 65 67 69 70 72 73 73 73 72 71 70 68 66 64 63 63 62 61 61 60 59 59 58 58 57 56 56 56
39 43 44 44 46 48 50 53 54 56 58 60 62 65 66 68 70 72 74 75 75 76 76 74 73 71 69 66 64 63 62 61 61 61 61 61 60 59 58 57 56 56 55 54
42 45 46 48 50 52 55 57 59 60 62 64 66 69 71 73 74 75 77 77 77 76 75 72 70 69 66 64 63 62 61 60 60 60 60 60 59 58 57 56 55 55 54 53
45 47 49 52 54 57 59 61 63 65 66 68 70 72 74 75 77 78 78 78 76 75 72 69 67 66 65 63 62 61 60 59 59 59 58 57 56 55 54 54 54 53 52 52
49 50 52 54 57 60 62 64 66 68 70 72 74 75 76 77 78 77 77 75 73 71 69 66 64 63 63 62 60 59 58 58 57 56 54 53 53 53 52 52 51 51 51 51
54 55 58 59 61 63 65 67 69 71 73 75 76 76 77 77 76 75 73 71 70 67 65 63 62 61 60 59 58 57 56 55 54 53 52 51 50 51 50 50 50 50 50 50
58 59 62 63 65 67 68 70 72 73 74 75 76 76 75 74 73 71 68 66 64 63 62 61 60 58 57 57 56 56 54 53 52 51 50 49 49 48 48 48 48 49 49 49
61 62 64 66 68 69 71 72 73 74 74 74 73 73 72 70 68 66 64 63 62 61 60 59 58 57 56 56 54 53 52 51 50 49 48 47 47 47 46 45 46 47 48 48
63 65 66 68 69 70 71 71 72 72 72 71 70 68 67 65 63 61 61 60 60 59 59 58 57 56 55 54 52 51 50 49 48 47 46 46 46 45 45 45 44 45 46 47
66 67 68 69 70 70 70 70 70 69 68 66 65 63 62 61 60 59 59 59 59 58 57 57 55 53 52 52 50 49 48 47 46 45 45 45 45 44 44 45 45 45 45 45
66 68 68 68 68 69 68 68 67 65 63 61 60 59 59 59 58 58 57 58 58 56 55 54 53 51 50 50 48 47 46 45 45 44 44 43 43 44 44 44 45 45 44 44
65 66 66 66 66 65 64 63 62 60 59 58 57 57 57 57 56 55 55 55 55 54 54 53 51 49 48 47 45 44 44 43 43 42 42 42 43 43 43 44 43 43 42 41
65 65 65 64 63 61 59 58 57 56 56 56 55 55 55 55 55 55 54 53 52 51 51 50 49 47 45 44 43 43 42 41 41 41 41 41 42 42 42 42 41 40 38 37
62 61 60 59 59 57 56 54 54 54 54 55 55 54 54 54 54 54 53 52 51 50 48 47 46 44 43 42 42 41 40 40 40 40 40 40 40 40 40 39 38 36 35 35
59 58 57 56 55 55 54 53 53 53 53 54 54 53 53 52 52 52 51 50 50 50 47 45 43 41 40 40 40 39 39 39 39 39 39 39 39 38 37 36 35 34 33 32
57 56 55 54 54 53 53 53 52 52 51 51 52 52 51 50 50 50 49 47 46 46 44 42 41 40 39 38 38 37 37 37 38 38 38 38 37 35 35 34 32 31 30 29
55 55 54 54 54 52 51 51 51 51 50 49 49 50 50 49 48 47 47 47 45 43 41 40 39 38 37 37 36 36 36 36 36 37 37 36 34 33 33 31 30 29 27 26
54 54 54 54 53 52 50 49 50 49 49 48 48 48 48 47 47 47 44 43 42 41 39 38 36 36 35 35 35 35 35 35 35 35 34 32 31 31 30 28 27 26 24 23
55 55 54 53 53 52 50 48 48 48 47 47 46 46 47 46 44 44 44 42 41 39 37 36 35 34 34 34 34 34 34 33 33 32 30 29 29 29 27 25 25 23 22 20
55 54 53 53 52 51 50 47 46 45 45 44 43 43 44 44 44 42 41 40 39 37 36 34 33 32 33 33 33 32 32 32 31 30 28 28 28 26 25 24 22 21 19 18
54 54 53 52 51 50 48 46 44 43 42 41 40 40 41 42 42 41 40 38 37 36 34 32 31 31 31 31 31 31 30 30 28 27 26 26 25 24 23 21 19 19 17 16
53 52 51 49 47 46 45 43 41 40 39 39 38 38 39 40 40 39 38 36 35 33 32 30 30 29 29 29 29 28 28 27 25 25 24 24 23 22 20 18 17 17 16 15
Wind_Direction
290 291 291 295 299 298 299 302 303 307 308 309 307 310 311 311 310 310 310 310 309 309 309 308 307 307 306 305 304 303 302 301 299 297 296 295 294 293 293 292 291 290 289 290
288 289 290 295 296 295 297 299 302 305 307 307 308 309 310 309 308 309 309 308 308 307 307 306 306 305 305 304 303 302 301 301 299 297 296 296 295 294 293 293 292 291 290 290
286 286 289 293 294 295 297 299 301 303 305 306 307 308 309 308 307 307 307 306 306 306 305 305 305 305 304 304 303 302 301 300 298 297 296 295 295 294 294 293 292 292 291 290
285 286 289 294 295 296 296 298 300 302 303 305 306 306 306 306 306 306 305 305 305 305 305 305 304 304 303 303 302 301 300 299 298 297 296 296 295 294 294 294 294 293 292 291
288 289 291 293 295 296 296 298 299 301 302 303 304 304 305 305 305 305 305 305 305 305 304 304 304 303 303 302 302 300 299 298 297 296 295 295 294 294 294 294 294 293 293 292
289 290 293 297 297 297 298 299 300 302 303 304 304 304 304 304 304 304 304 304 304 304 304 304 303 303 303 302 301 299 298 297 296 295 295 294 294 293 293 293 293 293 293 293
288 290 294 296 297 298 299 301 302 303 304 304 304 304 304 304 304 304 304 304 304 304 304 304 304 303 302 302 300 299 298 297 296 295 295 295 294 294 294 294 294 294 294 294
287 290 293 295 297 298 299 300 302 302 303 303 303 303 303 303 303 303 304 304 304 304 305 304 304 303 302 301 300 299 298 297 297 296 296 296 296 295 295 295 294 294 294 295
288 290 293 295 297 298 299 300 301 302 302 302 302 302 302 303 303 304 304 305 305 304 304 304 303 303 302 301 300 300 299 298 298 297 298 297 297 297 296 295 295 295 295 295
287 289 291 293 295 296 297 298 299 300 301 301 302 302 303 303 304 304 305 305 304 304 304 303 303 302 302 302 301 301 301 300 300 299 299 298 298 298 298 297 297 297 296 296
289 291 292 294 295 296 297 299 300 301 301 302 302 303 304 304 305 305 305 305 305 305 305 304 304 304 303 303 303 303 303 302 301 300 300 299 299 299 299 299 299 298 298 298
291 293 294 295 296 297 298 299 300 301 301 302 303 304 304 305 305 305 305 305 305 305 305 305 305 305 305 305 305 305 305 304 302 301 301 301 301 301 301 301 300 300 300 301
291 293 294 295 296 297 298 299 300 301 302 303 304 304 305 305 305 306 306 306 306 306 307 307 306 307 307 307 307 307 306 305 304 303 303 303 303 303 302 302 302 302 302 302
292 293 294 295 296 298 299 300 301 302 303 303 304 304 304 305 305 306 306 306 307 308 308 308 308 308 308 308 309 308 307 307 306 306 305 306 306 306 305 305 304 304 304 303
292 293 295 296 297 298 299 300 301 302 303 303 303 304 304 305 305 306 306 307 309 310 310 309 309 309 309 309 309 309 309 308 308 308 308 308 308 308 307 307 307 307 306 305
293 294 295 297 298 299 300 301 302 302 302 302 303 303 304 305 306 307 308 309 310 311 310 310 311 311 310 310 310 310 311 310 310 309 309 309 310 310 309 309 309 309 308 307
294 295 296 298 299 300 301 302 302 302 302 302 302 303 304 305 306 307 308 309 311 312 312 311 312 312 311 311 311 312 312 312 312 312 312 311 312 312 312 311 311 311 310 309
294 296 297 298 300 300 300 300 300 300 300 301 302 303 304 305 306 307 309 310 311 311 312 312 312 312 312 312 313 314 314 314 314 314 315 314 314 314 314 314 314 313 312 311
296 297 297 298 298 298 298 298 298 298 299 300 302 303 305 306 307 309 310 311 311 312 312 313 313 312 313 313 314 315 316 317 317 317 317 317 317 316 316 315 315 314 314 314
296 296 297 297 297 297 296 296 297 297 298 300 301 303 304 306 308 309 310 311 312 312 313 314 314 313 314 315 315 316 317 318 319 320 319 319 319 318 317 317 316 316 316 316
295 296 296 296 295 295 295 296 296 297 298 299 301 303 305 307 308 310 310 311 312 312 313 313 314 314 315 316 317 317 318 319 320 321 321 321 320 320 319 319 318 317 318 318
295 295 295 295 295 294 294 295 295 296 297 299 301 303 305 307 308 310 311 312 313 313 313 314 314 315 316 317 318 318 319 320 322 323 323 323 323 322 322 322 322 321 320 319
294 294 294 294 294 294 295 295 295 295 297 298 300 302 304 307 309 310 311 311 312 313 313 314 314 315 317 318 318 319 320 321 322 324 325 325 325 326 327 327 327 326 324 322
292 292 292 292 293 293 294 294 294 295 296 298 300 302 303 306 308 309 310 311 312 313 313 313 314 315 317 319 320 320 321 322 324 325 326 327 328 329 330 330 331 330 328 328
292 292 291 291 291 292 293 293 293 294 295 297 299 300 302 305 307 309 309 310 311 312 312 312 314 316 317 319 320 321 323 324 325 326 326 328 331 332 332 332 333 332 332 332
291 290 290 290 291 291 292 292 293 294 295 296 298 300 301 303 306 307 308 309 310 311 311 312 313 315 316 318 320 322 324 325 326 327 328 330 332 332 333 333 334 335 336 337
290 289 289 289 289 289 290 291 292 293 294 296 298 299 301 303 305 306 307 308 309 309 310 310 312 314 315 318 320 323 325 326 328 329 330 331 332 333 334 335 336 339 340 341